Find Starlink 34341

NORAD ID: 64161 Int'l Des: 2025-112 Owner: SPXS Country: US Constellation: starlink operational
LEOCIRCULARRETROGRADESSO

Live Position

Loading 3D Globe...

About Starlink 34341

Description loading...

Upcoming Passes

Passes for default location (London). Set your location on the main map for personalized predictions.

Altitude History

Loading altitude history...

Two-Line Element Set

1 64161U 25112R 26106.86029266 .00002432 00000-0 17268-3 0 9991
2 64161 97.6028 159.1801 0001706 119.3690 240.7707 15.05652816 49054
Epoch: Apr 16, 2026 • Age: 12 hours

Current Status

Altitude 551.8 km
Velocity 7.59 km/s
Sub-Earth Point 1.31°N, 5.32°E
Launch Date May 27, 2025
Age 0.8 years
Type internet

Technical Details

Classification Payload
Mass 575.00 kg
Dry Mass 530.00 kg
Total Mass 575.00 kg
Length 0.30 m
Diameter 4.10 m
Span 29.00 m
Shape Box + pan
Manufacturer SPXS
Bus Type Starlink V2MO
Phase Status In Orbit
Owner/State SPXS/US

Most Searched